| time (UTC) | temp F | wind direction | speed knots | gust knots | rain 1hr in | rain 24hr in | rain mn in | humidity % | barometer mb |
| 20260906200048 | 61 | 31 | 0.0 | 0.0 | 0.00 | 0.01 | 0.01 | 90 | 1015.8 |
| 20260906194526 | 61 | 31 | 0.0 | 0.9 | 0.00 | 0.01 | 0.01 | 91 | 1015.8 |
| 20260906193026 | 61 | 36 | 0.0 | 0.0 | 0.00 | 0.01 | 0.01 | 92 | 1015.8 |
| 20260906191508 | 60 | 36 | 0.0 | 0.0 | 0.00 | 0.01 | 0.01 | 93 | 1015.8 |
| 20260906190007 | 60 | 36 | 0.0 | 3.5 | 0.00 | 0.01 | 0.01 | 92 | 1015.8 |
| 20260906184549 | 59 | 37 | 0.9 | 2.6 | 0.00 | 0.01 | 0.01 | 92 | 1015.9 |
| 20260906183058 | 59 | 37 | 0.0 | 0.0 | 0.00 | 0.01 | 0.01 | 91 | 1015.9 |
| 20260906181537 | 59 | 37 | 0.0 | 0.0 | 0.00 | 0.01 | 0.01 | 92 | 1015.9 |
| 20260906180031 | 59 | 37 | 0.0 | 0.0 | 0.00 | 0.01 | 0.01 | 93 | 1015.9 |
| 20260906174512 | 59 | 37 | 0.0 | 0.0 | 0.00 | 0.01 | 0.01 | 93 | 1015.8 |
| 20260906173011 | 59 | 37 | 0.0 | 0.0 | 0.00 | 0.01 | 0.01 | 94 | 1015.7 |
| 20260906171553 | 59 | 37 | 0.0 | 0.0 | 0.00 | 0.01 | 0.01 | 95 | 1015.7 |
| 20260906170052 | 58 | 37 | 0.0 | 0.0 | 0.00 | 0.01 | 0.01 | 95 | 1015.7 |
| 20260906164533 | 58 | 37 | 0.0 | 0.0 | 0.00 | 0.01 | 0.01 | 95 | 1015.5 |
| 20260906163032 | 58 | 37 | 0.0 | 0.0 | 0.00 | 0.01 | 0.01 | 95 | 1015.5 |
| 20260906161514 | 58 | 37 | 0.0 | 0.0 | 0.00 | 0.01 | 0.01 | 96 | 1015.4 |
| 20260906160012 | 57 | 37 | 0.0 | 1.7 | 0.00 | 0.01 | 0.01 | 95 | 1015.3 |
| 20260906154554 | 57 | 37 | 0.0 | 0.0 | 0.00 | 0.01 | 0.01 | 95 | 1015.2 |
| 20260906153054 | 57 | 37 | 0.0 | 0.0 | 0.00 | 0.01 | 0.01 | 95 | 1015.3 |
| 20260906151536 | 57 | 37 | 0.0 | 0.0 | 0.00 | 0.01 | 0.01 | 95 | 1015.2 |
| 20260906150036 | 57 | 37 | 0.0 | 0.0 | 0.00 | 0.01 | 0.01 | 94 | 1015.0 |
| 20260906144518 | 57 | 37 | 0.0 | 0.0 | 0.00 | 0.01 | 0.01 | 94 | 1014.9 |
| 20260906143017 | 57 | 37 | 0.0 | 0.0 | 0.00 | 0.01 | 0.01 | 94 | 1014.7 |
| 20260906141504 | 57 | 37 | 0.0 | 0.0 | 0.00 | 0.01 | 0.01 | 93 | 1014.8 |
| 20260906140006 | 57 | 37 | 0.0 | 0.0 | 0.00 | 0.01 | 0.01 | 93 | 1014.6 |
| 20260906134502 | 57 | 37 | 0.0 | 0.0 | 0.00 | 0.01 | 0.01 | 93 | 1014.5 |
| 20260906133001 | 57 | 37 | 0.0 | 0.0 | 0.00 | 0.01 | 0.01 | 93 | 1014.2 |
| 20260906131603 | 57 | 37 | 0.0 | 0.0 | 0.00 | 0.01 | 0.01 | 92 | 1014.1 |
| 20260906130114 | 57 | 37 | 0.0 | 0.0 | 0.00 | 0.01 | 0.01 | 92 | 1014.2 |
| 20260906124559 | 58 | 37 | 0.0 | 0.0 | 0.00 | 0.01 | 0.01 | 91 | 1014.2 |
| 20260906123059 | 58 | 37 | 0.0 | 0.0 | 0.00 | 0.01 | 0.01 | 90 | 1014.2 |
| 20260906121540 | 58 | 37 | 0.0 | 0.0 | 0.00 | 0.01 | 0.01 | 88 | 1014.2 |
| 20260906120046 | 59 | 37 | 0.0 | 0.0 | 0.00 | 0.01 | 0.01 | 87 | 1014.3 |
| 20260906114528 | 59 | 37 | 0.0 | 0.0 | 0.00 | 0.01 | 0.01 | 86 | 1014.4 |
| 20260906113033 | 59 | 37 | 0.0 | 3.5 | 0.00 | 0.01 | 0.01 | 85 | 1014.3 |
| 20260906111504 | 59 | 82 | 0.0 | 5.2 | 0.00 | 0.01 | 0.01 | 84 | 1014.4 |
| 20260906110004 | 59 | 38 | 0.0 | 2.6 | 0.00 | 0.01 | 0.01 | 84 | 1014.3 |
| 20260906104546 | 60 | 39 | 0.0 | 3.5 | 0.00 | 0.01 | 0.01 | 84 | 1014.3 |
| 20260906103046 | 60 | 49 | 0.0 | 6.1 | 0.01 | 0.01 | 0.01 | 83 | 1014.2 |
| 20260906101528 | 60 | 39 | 0.9 | 4.3 | 0.01 | 0.01 | 0.01 | 84 | 1014.1 |
| 20260906100033 | 60 | 26 | 0.0 | 6.1 | 0.01 | 0.01 | 0.01 | 84 | 1014.0 |
| 20260906094509 | 59 | 35 | 1.7 | 7.8 | 0.01 | 0.01 | 0.01 | 85 | 1014.1 |
| 20260906093025 | 58 | 350 | 1.7 | 6.1 | 0.00 | 0.00 | 0.00 | 87 | 1014.2 |
| 20260906091608 | 57 | 38 | 2.6 | 7.0 | 0.00 | 0.00 | 0.00 | 90 | 1014.3 |
| 20260906090121 | 57 | 355 | 0.0 | 0.0 | 0.00 | 0.00 | 0.00 | 90 | 1014.1 |
| 20260906084555 | 57 | 355 | 0.0 | 0.0 | 0.00 | 0.00 | 0.00 | 90 | 1014.1 |
| 20260906083040 | 58 | 355 | 0.0 | 0.0 | 0.00 | 0.00 | 0.00 | 90 | 1014.1 |
| 20260906081533 | 58 | 355 | 0.0 | 0.0 | 0.00 | 0.00 | 0.00 | 89 | 1014.1 |
| 20260906080014 | 58 | 355 | 0.0 | 0.0 | 0.00 | 0.00 | 0.00 | 89 | 1014.2 |
| 20260906074530 | 58 | 355 | 0.0 | 0.0 | 0.00 | 0.00 | 0.00 | 88 | 1014.3 |
| 20260906073055 | 58 | 355 | 0.0 | 0.0 | 0.00 | 0.00 | 0.00 | 88 | 1014.4 |
| 20260906071554 | 58 | 355 | 0.0 | 0.0 | 0.00 | 0.00 | 0.00 | 86 | 1014.3 |
| 20260906070036 | 59 | 355 | 0.0 | 0.0 | 0.00 | 0.00 | 0.00 | 85 | 1014.4 |
| 20260906064536 | 59 | 355 | 0.0 | 1.7 | 0.00 | 0.00 | 0.00 | 85 | 1014.3 |
| 20260906063018 | 58 | 355 | 0.0 | 0.0 | 0.00 | 0.00 | 0.00 | 87 | 1014.4 |
| 20260906061519 | 57 | 355 | 0.0 | 1.7 | 0.00 | 0.00 | 0.00 | 90 | 1014.3 |
| 20260906060058 | 57 | 355 | 0.0 | 0.0 | 0.00 | 0.00 | 0.00 | 90 | 1014.5 |
| 20260906054604 | 57 | 355 | 0.0 | 0.0 | 0.00 | 0.00 | 0.00 | 90 | 1014.6 |
| 20260906053042 | 57 | 355 | 0.0 | 0.0 | 0.00 | 0.00 | 0.00 | 89 | 1014.6 |
| 20260906051539 | 57 | 355 | 0.0 | 0.0 | 0.00 | 0.00 | 0.00 | 87 | 1014.6 |
| 20260906050017 | 58 | 355 | 0.0 | 0.0 | 0.00 | 0.00 | 0.00 | 87 | 1014.5 |
| 20260906044515 | 58 | 355 | 0.0 | 0.0 | 0.00 | 0.00 | 0.00 | 84 | 1014.7 |
| 20260906043058 | 59 | 355 | 0.0 | 0.0 | 0.00 | 0.00 | 0.00 | 84 | 1014.8 |
| 20260906041557 | 60 | 355 | 0.0 | 0.0 | 0.00 | 0.00 | 0.00 | 82 | 1014.8 |
| 20260906040034 | 61 | 355 | 0.0 | 0.0 | 0.00 | 0.00 | 0.00 | 80 | 1014.8 |
| 20260906034535 | 62 | 355 | 0.0 | 0.0 | 0.00 | 0.00 | 0.00 | 79 | 1014.6 |
| 20260906033008 | 63 | 355 | 0.0 | 0.0 | 0.00 | 0.00 | 0.00 | 76 | 1014.5 |
| 20260906031504 | 64 | 355 | 0.0 | 0.0 | 0.00 | 0.00 | 0.00 | 73 | 1014.3 |
| 20260906030050 | 65 | 355 | 0.0 | 0.0 | 0.00 | 0.00 | 0.00 | 71 | 1014.2 |
| 20260906024555 | 66 | 355 | 0.0 | 0.0 | 0.00 | 0.00 | 0.00 | 68 | 1014.2 |
| 20260906023021 | 67 | 355 | 0.0 | 0.0 | 0.00 | 0.00 | 0.00 | 65 | 1014.2 |
| 20260906021516 | 69 | 355 | 0.0 | 0.0 | 0.00 | 0.00 | 0.00 | 63 | 1014.3 |
| 20260906020055 | 70 | 355 | 0.0 | 0.9 | 0.00 | 0.00 | 0.00 | 62 | 1014.4 |
| 20260906014555 | 70 | 355 | 0.0 | 3.5 | 0.00 | 0.00 | 0.00 | 61 | 1014.5 |
| 20260906013036 | 69 | 350 | 0.0 | 1.7 | 0.00 | 0.00 | 0.00 | 63 | 1014.5 |
| 20260906011551 | 70 | 350 | 0.0 | 2.6 | 0.00 | 0.00 | 0.00 | 61 | 1014.4 |
| 20260906010036 | 70 | 350 | 0.0 | 0.9 | 0.00 | 0.00 | 0.00 | 57 | 1014.5 |
| 20260906004518 | 71 | 345 | 0.0 | 4.3 | 0.00 | 0.00 | 0.00 | 56 | 1014.5 |
| 20260906003100 | 73 | 345 | 0.0 | 4.3 | 0.00 | 0.00 | 0.00 | 53 | 1014.5 |
| 20260906001606 | 75 | 332 | 0.0 | 4.3 | 0.00 | 0.00 | 0.00 | 50 | 1014.5 |
| 20260906000039 | 74 | 33 | 0.9 | 3.5 | 0.00 | 0.00 | 0.00 | 53 | 1014.5 |
| 20260905234536 | 73 | 183 | 0.0 | 4.3 | 0.00 | 0.00 | 0.00 | 54 | 1014.5 |
| 20260905233015 | 73 | 329 | 0.0 | 0.0 | 0.00 | 0.00 | 0.00 | 56 | 1014.6 |
| 20260905231523 | 71 | 339 | 0.0 | 5.2 | 0.00 | 0.00 | 0.00 | 59 | 1014.7 |
| 20260905230107 | 70 | 140 | 0.0 | 0.0 | 0.00 | 0.00 | 0.00 | 60 | 1014.8 |
| 20260905224555 | 71 | 142 | 0.0 | 2.6 | 0.00 | 0.01 | 0.00 | 60 | 1014.9 |
| 20260905223042 | 72 | 142 | 0.9 | 4.3 | 0.00 | 0.01 | 0.00 | 59 | 1015.0 |
| 20260905221540 | 71 | 130 | 0.0 | 4.3 | 0.00 | 0.01 | 0.00 | 63 | 1015.1 |
| 20260905220018 | 68 | 41 | 0.0 | 3.5 | 0.00 | 0.01 | 0.00 | 71 | 1015.2 |
| 20260905214513 | 66 | 232 | 0.0 | 0.0 | 0.00 | 0.01 | 0.00 | 75 | 1015.3 |
| 20260905213058 | 66 | 232 | 0.0 | 0.0 | 0.00 | 0.01 | 0.00 | 71 | 1015.5 |
| 20260905211556 | 68 | 282 | 0.0 | 4.3 | 0.00 | 0.01 | 0.00 | 65 | 1015.6 |
| 20260905210039 | 68 | 350 | 0.0 | 4.3 | 0.00 | 0.01 | 0.00 | 62 | 1015.6 |
| 20260905204537 | 69 | 355 | 0.0 | 5.2 | 0.00 | 0.01 | 0.00 | 62 | 1015.6 |
| 20260905203034 | 70 | 33 | 0.0 | 4.3 | 0.00 | 0.01 | 0.00 | 59 | 1015.7 |
| 20260905201525 | 68 | 34 | 0.0 | 0.9 | 0.00 | 0.01 | 0.00 | 61 | 1015.6 |